Weather History for KBPT - November, 2012

Change the Weather History Date:

Wednesday, November 14, 2012

  Actual Average Record
Temperature  
Mean Temperature 54 °F 62 °F  
Max Temperature 65 °F 72 °F 86 °F (1978)
Min Temperature 43 °F 52 °F 26 °F (1916)
Degree Days  
Heating Degree Days 11 5  
Month to date heating degree days 39 52  
Since 1 July heating degree days 84 86  
Cooling Degree Days 0 2  
Month to date cooling degree days 53 40  
Year to date cooling degree days 3124 2831  
Growing Degree Days 4 (Base 50)    
Moisture  
Dew Point 33 °F    
Average Humidity 49    
Maximum Humidity 71    
Minimum Humidity 26    
Precipitation  
Precipitation T in 0.15 in 1.54 in (1998)
Month to date precipitation 0.13 2.12  
Year to date precipitation 57.23 52.90  
Snow  
Snow 0.00 in 0.00 in 0.00 in ()
Month to date snowfall 0.0 0.0  
Since 1 July snowfall 0.0 0.0  
Since 1 September snowfall 0.0 0.0  
Snow Depth 0.00 in    
Sea Level Pressure  
Sea Level Pressure 30.33 in    
Wind  
Wind Speed 7 mph (NNE)    
Max Wind Speed 15 mph    
Max Gust Speed 18 mph    
Visibility 10 miles    
Events      
T = Trace of Precipitation, MM = Missing Value Source: NWS Daily Summary

Daily Weather History Graph

Daily Weather History Graph

Search for Another Location

Airport or City:

Trip Planner

Search our weather history database for the weather conditions in past years. The results will help you decide how hot, cold, wet, or windy it might be!

Date:

Astronomy

Nov. 14, 2012 Rise Set
Actual Time 6:40 AM CST 5:20 PM CST
Civil Twilight 6:15 AM CST 5:45 PM CST
Nautical Twilight 5:46 AM CST 6:14 PM CST
Astronomical Twilight 5:18 AM CST 6:42 PM CST
Moon 7:26 AM CST (11/14) 6:14 PM CST (11/14)
Length of Visible Light 11h 30m
Length of Day
10h 39m
New Moon, 1% of the Moon is Illuminated
Nov 14
New Moon
Nov 20
First Quarter
Nov 28
Full
Dec 6
Last Quarter
Dec 13
New

Hourly Weather History & Observations

Time (CST) Temp. Windchill Dew Point Humidity Pressure Visibility Wind Dir Wind Speed Gust Speed Precip Events Conditions
12:53 AM 48.9 °F - 35.1 °F 59% 30.36 in 10.0 mi NNE 8.1 mph - N/A   Mostly Cloudy
1:53 AM 46.0 °F 41.0 °F 37.0 °F 71% 30.36 in 10.0 mi NNE 10.4 mph - 0.00 in   Clear
2:53 AM 45.0 °F 41.2 °F 36.0 °F 71% 30.35 in 10.0 mi NNE 6.9 mph - N/A   Scattered Clouds
3:53 AM 44.1 °F 38.6 °F 34.0 °F 68% 30.35 in 10.0 mi NNE 10.4 mph - N/A   Clear
4:53 AM 44.1 °F 39.5 °F 34.0 °F 68% 30.35 in 10.0 mi NNE 8.1 mph - N/A   Partly Cloudy
5:53 AM 46.0 °F 41.9 °F 34.0 °F 63% 30.34 in 10.0 mi NE 8.1 mph - N/A   Overcast
6:53 AM 46.0 °F 41.9 °F 35.1 °F 66% 30.36 in 10.0 mi North 8.1 mph - N/A   Mostly Cloudy
7:53 AM 46.9 °F - 34.0 °F 61% 30.39 in 10.0 mi NNE 6.9 mph - N/A   Overcast
8:53 AM 48.0 °F - 34.0 °F 58% 30.39 in 10.0 mi NNE 8.1 mph - N/A   Mostly Cloudy
9:53 AM 54.0 °F - 34.0 °F 47% 30.40 in 10.0 mi NNE 8.1 mph - 0.01 in   Scattered Clouds
10:53 AM 55.9 °F - 32.0 °F 40% 30.38 in 10.0 mi NNE 8.1 mph - 0.01 in   Mostly Cloudy
11:53 AM 59.0 °F - 30.0 °F 33% 30.35 in 10.0 mi North 4.6 mph - N/A   Clear
12:53 PM 62.1 °F - 30.0 °F 30% 30.32 in 10.0 mi North 11.5 mph - 0.01 in   Clear
1:53 PM 64.0 °F - 30.0 °F 28% 30.30 in 10.0 mi North 11.5 mph - N/A   Clear
2:53 PM 64.0 °F - 28.9 °F 27% 30.28 in 10.0 mi North 10.4 mph - N/A   Clear
3:53 PM 64.0 °F - 30.9 °F 29% 30.27 in 10.0 mi North 6.9 mph - N/A   Clear
4:53 PM 61.0 °F - 34.0 °F 36% 30.27 in 10.0 mi North 4.6 mph - N/A   Clear
5:53 PM 57.0 °F - 32.0 °F 39% 30.27 in 10.0 mi North 4.6 mph - N/A   Clear
6:53 PM 53.1 °F - 33.1 °F 47% 30.29 in 10.0 mi NE 3.5 mph - N/A   Clear
7:53 PM 51.1 °F - 36.0 °F 56% 30.31 in 10.0 mi North 5.8 mph - N/A   Clear
8:53 PM 48.9 °F - 35.1 °F 59% 30.32 in 10.0 mi North 8.1 mph - N/A   Clear
9:53 PM 48.0 °F - 33.1 °F 56% 30.32 in 10.0 mi North 6.9 mph - N/A   Clear
10:53 PM 46.9 °F - 34.0 °F 61% 30.31 in 10.0 mi NNE 4.6 mph - N/A   Clear
11:53 PM 45.0 °F 42.6 °F 35.1 °F 68% 30.30 in 10.0 mi North 4.6 mph - N/A   Clear